AirNav   ATP
 
 1764 users online  

M49 Jolly Fisherman Seaplane Base
Waubun, Minnesota, USA

GOING TO WAUBUN?


FAA INFORMATION EFFECTIVE 16 AUGUST 2018

Location

FAA Identifier: M49
Lat/Long: 47-08-34.8540N / 095-31-44.1060W
47-08.580900N / 095-31.735100W
47.1430150 / -95.5289183
(estimated)
Elevation: 1499 ft. / 457 m (estimated)
Variation: 05E (1985)
From city: 17 miles E of WAUBUN, MN
Time zone: UTC -5 (UTC -6 during Standard Time)
Zip code: 56589

Seaplane Base Operations

Seaplane Base use: Open to the public
Activation date: 03/1983
Control tower: no
ARTCC: MINNEAPOLIS CENTER
FSS: PRINCETON FLIGHT SERVICE STATION
NOTAMs facility: PNM (NOTAM-D service available)
Attendance: MAY-OCT DAYLIGHT HOURS, NOV-APR/UNATNDD/
Wind indicator: yes
Segmented circle: no

Seaplane Base Communications

CTAF: 122.9
WX AWOS-3PT at 3N8 (18 nm NW): 121.125 (218-936-2507)

Nearby radio navigation aids

VOR radial/distance  VOR name  Freq  Var
PKDr304/23.8PARK RAPIDS VOR/DME110.6004E
DTLr033/24.0DETROIT LAKES VOR/DME111.2005E
IDJr227/32.9LAKE BEMIDJI VOR/DME110.0001E

 
NDB name  Hdg/Dist  Freq  Var  ID
FOSSTON157/28.522403EFSE ..-. ... .

Seaplane Base Services

Parking: tiedowns
Airframe service: NONE
Powerplant service: NONE
Bottled oxygen: NONE
Bulk oxygen: NONE

Runway Information

Runway 8W/26W

Dimensions: 5000 x 1800 ft. / 1524 x 549 m
Surface: water
RUNWAY 8W  RUNWAY 26W
Traffic pattern: leftleft

Seaplane Base Ownership and Management from official FAA records

Ownership: Privately-owned
Owner: ANNE BUELOW
39126 JOLLY FISHERMAN ROAD
WAUBUN, MN 56589
Phone 701-388-8042
Manager: ANNE BUELOW
39126 JOLLY FISHERMAN ROAD
WAUBUN, MN 56589
Phone 701-388-8042

Seaplane Base Operational Statistics

Aircraft operations: 40/year *
75% local general aviation
25% transient general aviation
* for 12-month period ending 30 July 2015

Instrument Procedures

There are no published instrument procedures at M49.

Some nearby airports with instrument procedures:

3N8 - Mahnomen County Airport (18 nm NW)
KPKD - Park Rapids Municipal Airport-Konshok Field (24 nm SE)
KDTL - Detroit Lakes Airport-Wething Field (24 nm SW)
KFSE - Fosston Municipal Airport (29 nm N)
16D - Perham Municipal Airport (32 nm S)
 
Loc | Ops | Rwys | IFR | FBO | Links
Com | Nav | Svcs | Stats | Notes


 
Area around M49 (Jolly Fisherman Seaplane Base)
 
Road maps at: MapQuest Bing Google
 
Aerial photo
WARNING: Photo may not be current or correct
Aerial photo of M49 (Jolly Fisherman Seaplane Base)
Photo by Pete Peterson
Taken in September 2007

Do you have a better or more recent aerial photo of Jolly Fisherman Seaplane Base that you would like to share? If so, please send us your photo.

 
Sectional chart

 
Airport distance calculator
Flying to Jolly Fisherman Seaplane Base? Find the distance to fly.

From to M49

Sunrise and sunset
Times for 21-Aug-2018
 Local
(UTC-5)
 Zulu
(UTC)
Morning civil twilight05:5510:55
Sunrise06:2811:28
Sunset20:2301:23
Evening civil twilight20:5501:55

Current date and time
Zulu (UTC)  21-Aug-2018 16:00:00
Local (UTC-5)  21-Aug-2018 11:00:00
 
METAR
K3N8 
18nm NW 
211535Z AUTO 30005KT 10SM CLR 18/11 A3018 RMK AO2 T01810108
KPKD 
24nm SE 
211553Z AUTO 33007KT 10SM CLR 17/09 A3017 RMK AO2 SLP216 T01720089
KDTL 
24nm SW 
211535Z AUTO 00000KT 10SM CLR 16/10 A3020 RMK AO2 P0001
KFSE 
28nm N 
211555Z AUTO 31009KT 10SM CLR 20/08 A3018 RMK AO2
KBJI 
33nm NE 
211535Z AUTO 35008KT 10SM CLR 19/09 A3016 RMK AO2 T01880094
TAF
KBJI 
33nm NE 
211134Z 2112/2212 VRB06KT P6SM BKN110 FM212000 33009KT P6SM FEW250 FM220300 VRB03KT P6SM SKC
NOTAMs
Click for the latest NOTAMs
NOTAMs are issued by the DoD/FAA and will open in a separate window not controlled by AirNav.

 

 
 

Would you like to see your business listed on this page?

 If your business provides an interesting product or service to pilots, flight crews, aircraft, or users of the Jolly Fisherman Seaplane Base, you should consider listing it here.  To start the listing process, click on the button below
 
Add a business
 

Other Pages about Jolly Fisherman Seaplane Base

Update a link
 
Copyright © AirNav, LLC. All rights reserved. Privacy Policy  Contact